Norfolk, NE

6:43 PM CDT on August 28, 2016 (GMT -0500)
Stefan Memorial

Weather History for KOFK - November, 2014

Change the Weather History Date:

Tuesday, November 4, 2014

  Actual Average Record
Temperature  
Mean Temperature 48 °F 43 °F  
Max Temperature 64 °F 54 °F 83 °F (1909)
Min Temperature 32 °F 31 °F -9 °F (1991)
Degree Days  
Heating Degree Days 17 22  
Month to date heating degree days 70 86  
Since 1 July heating degree days 573 671  
Cooling Degree Days 0 0  
Month to date cooling degree days 0 0  
Year to date cooling degree days 812 915  
Moisture  
Dew Point 30 °F    
Average Humidity 61    
Maximum Humidity 96    
Minimum Humidity 25    
Precipitation  
Precipitation 0.00 in 0.05 in 0.61 in (1925)
Month to date precipitation T 0.20  
Year to date precipitation 28.19 25.49  
Snow  
Snow 0.00 in 0.10 in - ()
Month to date snowfall 0.0 0.4  
Since 1 July snowfall 0.0 1.2  
Snow Depth 0.00 in    
Sea Level Pressure  
Sea Level Pressure 30.11 in    
Wind  
Wind Speed 9 mph (WSW)    
Max Wind Speed 24 mph    
Max Gust Speed 30 mph    
Visibility 10 miles    
Events      
T = Trace of Precipitation, MM = Missing Value Source: NWS Daily Summary

Daily Weather History Graph

Daily Weather History Graph

Search for Another Location

Airport or City:

Trip Planner

Search our weather history database for the weather conditions in past years. The results will help you decide how hot, cold, wet, or windy it might be!

Date:

Astronomy

Nov. 04, 2014 Rise Set
Actual Time 7:06 AM CST 5:19 PM CST
Civil Twilight 6:36 AM CST 5:49 PM CST
Nautical Twilight 6:03 AM CST 6:22 PM CST
Astronomical Twilight 5:31 AM CST 6:54 PM CST
Moon 4:09 PM CST (11/4) 4:22 AM CST (11/4)
Length of Visible Light 11h 12m
Length of Day
10h 13m
Waxing Gibbous, 94% of the Moon is Illuminated
Nov 4
Waxing Gibbous
Nov 6
Full
Nov 14
Last Quarter
Nov 22
New
Nov 29
First Quarter

Hourly Weather History & Observations

Time (CST) Temp. Windchill Dew Point Humidity Pressure Visibility Wind Dir Wind Speed Gust Speed Precip Events Conditions
12:56 AM 37.9 °F 32.1 °F 35.1 °F 89% 30.08 in 10.0 mi West 8.1 mph - N/A   Clear
1:56 AM 36.0 °F 29.6 °F 33.1 °F 89% 30.11 in 10.0 mi WSW 8.1 mph - N/A   Clear
2:56 AM 35.1 °F 28.6 °F 32.0 °F 89% 30.12 in 10.0 mi West 8.1 mph - N/A   Clear
3:56 AM 34.0 °F 26.6 °F 32.0 °F 92% 30.12 in 10.0 mi West 9.2 mph - N/A   Clear
4:56 AM 34.0 °F 26.6 °F 30.9 °F 89% 30.14 in 10.0 mi West 9.2 mph - N/A   Clear
5:56 AM 33.1 °F 26.1 °F 30.0 °F 89% 30.15 in 10.0 mi West 8.1 mph - N/A   Clear
6:56 AM 33.1 °F 26.1 °F 28.9 °F 85% 30.16 in 10.0 mi WSW 8.1 mph - N/A   Clear
7:56 AM 36.0 °F 29.6 °F 30.9 °F 82% 30.17 in 10.0 mi WSW 8.1 mph - N/A   Clear
8:56 AM 41.0 °F 34.7 °F 33.1 °F 73% 30.18 in 10.0 mi West 10.4 mph - N/A   Clear
9:56 AM 48.9 °F - 34.0 °F 56% 30.16 in 10.0 mi West 10.4 mph - N/A   Clear
10:56 AM 55.0 °F - 33.1 °F 43% 30.15 in 10.0 mi West 11.5 mph - N/A   Clear
11:56 AM 59.0 °F - 30.0 °F 33% 30.12 in 10.0 mi West 13.8 mph - N/A   Clear
12:56 PM 61.0 °F - 28.0 °F 29% 30.09 in 10.0 mi West 15.0 mph - N/A   Clear
1:56 PM 63.0 °F - 27.0 °F 26% 30.07 in 10.0 mi West 19.6 mph 27.6 mph N/A   Clear
2:56 PM 63.0 °F - 26.1 °F 25% 30.06 in 10.0 mi WNW 13.8 mph 25.3 mph N/A   Clear
3:56 PM 62.1 °F - 27.0 °F 26% 30.07 in 10.0 mi West 12.7 mph 20.7 mph N/A   Clear
4:56 PM 57.9 °F - 28.0 °F 32% 30.07 in 10.0 mi West 8.1 mph - N/A   Clear
5:56 PM 46.0 °F 42.5 °F 28.0 °F 50% 30.08 in 10.0 mi WSW 6.9 mph - N/A   Clear
6:56 PM 44.1 °F 40.1 °F 28.9 °F 55% 30.09 in 10.0 mi SW 6.9 mph - N/A   Clear
7:56 PM 41.0 °F 34.7 °F 28.9 °F 62% 30.09 in 10.0 mi SSW 10.4 mph - N/A   Clear
8:56 PM 41.0 °F - 28.0 °F 60% 30.08 in 10.0 mi Calm Calm - N/A   Clear
9:56 PM 37.9 °F 32.7 °F 28.0 °F 68% 30.09 in 10.0 mi SSW 6.9 mph - N/A   Clear
10:56 PM 37.0 °F - 28.0 °F 70% 30.07 in 10.0 mi Calm Calm - N/A   Clear
11:56 PM 39.0 °F 35.7 °F 28.0 °F 65% 30.06 in 10.0 mi SSW 4.6 mph - N/A   Clear